Time,TemperatureF,DewpointF,PressureIn,WindDirection,WindDirectionDegrees,WindSpeedMPH,WindSpeedGustMPH,Humidity,HourlyPrecipIn,Conditions,Clouds,dailyrainin,SoftwareType,DateUTC
2013-11-17 00:23:00,54.0,53.0,30.26,West,260,0.0,2.0,96,0.00,,,0.06,,2013-11-17 05:23:00,
2013-11-17 00:54:00,54.0,53.0,30.25,SW,226,1.0,2.0,96,0.00,,,0.04,,2013-11-17 05:54:00,
2013-11-17 01:23:00,53.0,52.0,30.23,West,265,0.0,2.0,98,0.00,,,0.04,,2013-11-17 06:23:00,
2013-11-17 01:42:00,54.0,53.0,30.23,WNW,286,0.0,3.0,96,0.00,,,0.01,,2013-11-17 06:42:00,
2013-11-17 01:52:00,55.0,53.0,30.23,SW,215,1.0,4.0,94,0.00,,,0.01,,2013-11-17 06:52:00,
2013-11-17 02:22:00,54.0,53.0,30.22,SSW,192,0.0,0.0,95,0.00,,,0.01,,2013-11-17 07:22:00,
2013-11-17 02:42:00,53.0,52.0,30.22,SSW,192,0.0,1.0,97,0.00,,,0.00,,2013-11-17 07:42:00,
2013-11-17 02:53:00,53.0,52.0,30.21,SSW,192,0.0,1.0,97,0.00,,,0.00,,2013-11-17 07:53:00,
2013-11-17 03:22:00,53.0,52.0,30.20,SSW,192,0.0,1.0,98,0.00,,,0.00,,2013-11-17 08:22:00,
2013-11-17 03:52:00,53.0,52.0,30.19,SSW,192,0.0,0.0,98,0.00,,,0.00,,2013-11-17 08:52:00,
2013-11-17 04:22:00,53.0,52.0,30.19,SSW,192,0.0,0.0,98,0.00,,,0.00,,2013-11-17 09:22:00,
2013-11-17 04:42:00,53.0,52.0,30.18,SSW,192,0.0,0.0,98,0.00,,,0.00,,2013-11-17 09:42:00,
2013-11-17 04:54:00,53.0,52.0,30.17,SSW,192,0.0,2.0,98,0.00,,,0.00,,2013-11-17 09:54:00,
2013-11-17 05:23:00,54.0,53.0,30.17,SSW,202,0.0,3.0,97,0.00,,,0.00,,2013-11-17 10:23:00,
2013-11-17 05:53:00,53.0,52.0,30.16,South,191,0.0,2.0,98,0.00,,,0.00,,2013-11-17 10:53:00,
2013-11-17 06:23:00,54.0,53.0,30.16,South,170,1.0,5.0,97,0.00,,,0.00,,2013-11-17 11:23:00,
2013-11-17 06:52:00,54.0,53.0,30.16,SSE,161,1.0,3.0,97,0.00,,,0.00,,2013-11-17 11:52:00,
2013-11-17 07:22:00,55.0,54.0,30.16,SSE,149,1.0,3.0,96,0.00,,,0.00,,2013-11-17 12:22:00,
2013-11-17 07:42:00,55.0,54.0,30.16,North,360,1.0,5.0,95,0.00,,,0.00,,2013-11-17 12:42:00,
2013-11-17 07:52:00,55.0,54.0,30.17,SW,217,1.0,3.0,95,0.00,,,0.00,,2013-11-17 12:52:00,
2013-11-17 08:22:00,56.0,55.0,30.18,SSE,161,2.0,3.0,95,0.00,,,0.00,,2013-11-17 13:22:00,
2013-11-17 08:42:00,56.0,55.0,30.17,ESE,103,0.0,4.0,95,0.00,,,0.00,,2013-11-17 13:42:00,
2013-11-17 08:52:00,56.0,55.0,30.17,South,173,0.0,2.0,95,0.00,,,0.00,,2013-11-17 13:52:00,
2013-11-17 09:22:00,56.0,54.0,30.17,SSE,168,1.0,4.0,94,0.00,,,0.00,,2013-11-17 14:22:00,
2013-11-17 09:42:00,57.0,55.0,30.17,SSE,168,2.0,4.0,92,0.00,,,0.00,,2013-11-17 14:42:00,
2013-11-17 09:52:00,58.0,55.0,30.17,South,176,2.0,4.0,91,0.00,,,0.00,,2013-11-17 14:52:00,
2013-11-17 10:13:00,59.0,56.0,30.17,WNW,303,1.0,5.0,90,0.00,,,0.00,,2013-11-17 15:13:00,
2013-11-17 10:22:00,58.0,55.0,30.18,South,169,2.0,5.0,90,0.00,,,0.00,,2013-11-17 15:22:00,
2013-11-17 10:43:00,59.0,56.0,30.17,WNW,303,1.0,5.0,90,0.00,,,0.00,,2013-11-17 15:43:00,
2013-11-17 10:54:00,59.0,56.0,30.17,WNW,303,1.0,5.0,90,0.00,,,0.00,,2013-11-17 15:54:00,
2013-11-17 11:03:00,59.0,56.0,30.17,WNW,303,1.0,5.0,90,0.00,,,0.00,,2013-11-17 16:03:00,
2013-11-17 15:52:00,56.0,55.0,30.05,NE,38,0.0,0.0,98,0.08,,,0.24,,2013-11-17 20:52:00,
2013-11-17 16:22:00,56.0,55.0,30.06,ENE,63,0.0,1.0,98,0.18,,,0.36,,2013-11-17 21:22:00,
2013-11-17 16:44:00,56.0,56.0,30.04,ENE,65,0.0,1.0,99,0.15,,,0.36,,2013-11-17 21:44:00,
2013-11-17 16:55:00,56.0,55.0,30.04,SSE,161,0.0,2.0,98,0.13,,,0.37,,2013-11-17 21:55:00,
2013-11-17 17:24:00,56.0,56.0,30.04,SSE,161,0.0,1.0,99,0.03,,,0.39,,2013-11-17 22:24:00,
2013-11-17 17:43:00,56.0,56.0,30.03,SSE,161,0.0,0.0,99,0.06,,,0.42,,2013-11-17 22:43:00,
2013-11-17 17:53:00,56.0,56.0,30.03,SSE,161,0.0,0.0,99,0.06,,,0.43,,2013-11-17 22:53:00,
2013-11-17 18:23:00,56.0,56.0,30.03,SSE,161,0.0,0.0,99,0.08,,,0.47,,2013-11-17 23:23:00,
2013-11-17 18:53:00,56.0,56.0,30.03,SSE,161,0.0,0.0,99,0.08,,,0.52,,2013-11-17 23:53:00,
2013-11-17 19:22:00,56.0,56.0,30.03,SSE,161,0.0,0.0,99,0.09,,,0.56,,2013-11-18 00:22:00,
2013-11-17 19:42:00,56.0,56.0,30.03,SSE,161,0.0,1.0,99,0.07,,,0.57,,2013-11-18 00:42:00,
2013-11-17 19:52:00,56.0,56.0,30.03,SSE,161,0.0,0.0,99,0.06,,,0.58,,2013-11-18 00:52:00,
2013-11-17 20:22:00,56.0,56.0,30.01,SSE,161,0.0,0.0,99,0.03,,,0.59,,2013-11-18 01:22:00,
2013-11-17 20:52:00,56.0,56.0,30.01,SSE,161,0.0,0.0,99,0.05,,,0.63,,2013-11-18 01:52:00,
2013-11-17 21:21:00,56.0,56.0,30.01,SSE,161,0.0,0.0,99,0.05,,,0.64,,2013-11-18 02:21:00,
2013-11-17 21:52:00,56.0,56.0,30.00,SSE,161,0.0,0.0,99,0.02,,,0.65,,2013-11-18 02:52:00,
2013-11-17 22:22:00,56.0,56.0,30.00,SSE,161,0.0,1.0,99,0.01,,,0.65,,2013-11-18 03:22:00,
2013-11-17 22:44:00,56.0,56.0,30.00,SSE,161,0.0,0.0,99,0.00,,,0.65,,2013-11-18 03:44:00,
2013-11-17 22:54:00,56.0,56.0,30.00,SSE,161,0.0,0.0,99,0.00,,,0.65,,2013-11-18 03:54:00,
2013-11-17 23:13:00,57.0,57.0,29.99,SSW,206,0.0,2.0,99,0.01,,,0.66,,2013-11-18 04:13:00,
2013-11-17 23:23:00,58.0,58.0,29.99,South,183,0.0,2.0,99,0.02,,,0.67,,2013-11-18 04:23:00,
2013-11-17 23:52:00,58.0,58.0,29.98,ESE,106,2.0,5.0,99,0.03,,,0.68,,2013-11-18 04:52:00,